Weather History for KEAU - September, 2013

Change the Weather History Date:

Friday, September 20, 2013

  Actual Average Record
Temperature  
Mean Temperature 59 °F 58 °F  
Max Temperature 67 °F 70 °F 96 °F (1895)
Min Temperature 50 °F 47 °F 27 °F (1973)
Degree Days  
Heating Degree Days 6 8  
Month to date heating degree days 75 94  
Since 1 July heating degree days 113 133  
Cooling Degree Days 0 1  
Month to date cooling degree days 82 41  
Year to date cooling degree days 648 568  
Growing Degree Days 10 (Base 50)    
Moisture  
Dew Point 54 °F    
Average Humidity 75    
Maximum Humidity 93    
Minimum Humidity 56    
Precipitation  
Precipitation 0.01 in 0.13 in 1.13 in (1980)
Month to date precipitation 1.50 2.50  
Year to date precipitation 29.14 24.62  
Snow  
Snow 0.00 in 0.00 in 0.00 in ()
Month to date snowfall 0.0 0.0  
Since 1 July snowfall 0.0 0.0  
Since 1 September snowfall 0.0 0.0  
Snow Depth 0.00 in    
Sea Level Pressure  
Sea Level Pressure 29.80 in    
Wind  
Wind Speed 10 mph (West)    
Max Wind Speed 22 mph    
Max Gust Speed 30 mph    
Visibility 10 miles    
Events      
T = Trace of Precipitation, MM = Missing Value Source: NWS Daily Summary

Daily Weather History Graph

Daily Weather History Graph

Search for Another Location

Airport or City:

Trip Planner

Search our weather history database for the weather conditions in past years. The results will help you decide how hot, cold, wet, or windy it might be!

Date:

Astronomy

Sep. 20, 2013 Rise Set
Actual Time 6:50 AM CDT 7:06 PM CDT
Civil Twilight 6:21 AM CDT 7:35 PM CDT
Nautical Twilight 5:47 AM CDT 8:10 PM CDT
Astronomical Twilight 5:11 AM CDT 8:45 PM CDT
Moon 7:34 PM CDT (9/20) 8:11 AM CDT (9/20)
Length of Visible Light 13h 14m
Length of Day
12h 15m
Full, 98% of the Moon is Illuminated
Sep 20
Full
Sep 26
Last Quarter
Oct 4
New
Oct 11
First Quarter
Oct 18
Full

Hourly Weather History & Observations

Time (CDT) Temp. Dew Point Humidity Pressure Visibility Wind Dir Wind Speed Gust Speed Precip Events Conditions
12:56 AM 66.0 °F 63.0 °F 90% 29.73 in 10.0 mi WSW 5.8 mph - N/A   Partly Cloudy
1:56 AM 66.0 °F 63.0 °F 90% 29.74 in 10.0 mi West 6.9 mph - N/A   Overcast
2:56 AM 64.9 °F 62.1 °F 90% 29.74 in 10.0 mi West 8.1 mph - N/A   Overcast
3:56 AM 64.0 °F 62.1 °F 93% 29.75 in 10.0 mi West 6.9 mph - N/A   Partly Cloudy
4:56 AM 62.1 °F 57.9 °F 86% 29.74 in 10.0 mi WNW 9.2 mph - 0.00 in   Overcast
5:56 AM 60.1 °F 57.0 °F 90% 29.75 in 10.0 mi WSW 5.8 mph - 0.00 in   Partly Cloudy
6:54 AM 59.0 °F 55.4 °F 88% 29.77 in 10.0 mi West 8.1 mph - N/A   Overcast
6:56 AM 59.0 °F 55.0 °F 87% 29.77 in 10.0 mi West 8.1 mph - N/A   Overcast
7:54 AM 59.0 °F 55.4 °F 88% 29.79 in 10.0 mi West 9.2 mph - N/A   Overcast
7:56 AM 59.0 °F 55.0 °F 87% 29.78 in 10.0 mi West 9.2 mph - N/A   Overcast
8:56 AM 59.0 °F 55.0 °F 87% 29.79 in 10.0 mi West 9.2 mph 17.3 mph N/A   Overcast
9:56 AM 60.1 °F 55.0 °F 83% 29.80 in 10.0 mi West 13.8 mph 18.4 mph N/A   Overcast
10:43 AM 60.8 °F 55.4 °F 82% 29.81 in 10.0 mi West 13.8 mph 19.6 mph N/A   Overcast
10:56 AM 60.1 °F 55.0 °F 83% 29.81 in 10.0 mi West 12.7 mph - N/A   Overcast
11:18 AM 60.8 °F 55.4 °F 82% 29.80 in 10.0 mi West 13.8 mph - N/A   Overcast
11:28 AM 60.8 °F 55.4 °F 82% 29.81 in 10.0 mi West 9.2 mph - N/A   Overcast
11:56 AM 62.1 °F 55.0 °F 78% 29.80 in 10.0 mi West 11.5 mph - N/A   Overcast
12:56 PM 66.0 °F 55.0 °F 68% 29.79 in 10.0 mi West 16.1 mph 21.9 mph N/A   Overcast
1:56 PM 62.1 °F 55.9 °F 80% 29.79 in 10.0 mi West 11.5 mph 20.7 mph N/A   Mostly Cloudy
2:56 PM 61.0 °F 57.0 °F 87% 29.79 in 10.0 mi WNW 12.7 mph - 0.01 in   Overcast
3:56 PM 64.9 °F 48.9 °F 56% 29.79 in 10.0 mi WNW 19.6 mph 27.6 mph 0.00 in   Mostly Cloudy
4:56 PM 64.0 °F 50.0 °F 60% 29.81 in 10.0 mi NW 12.7 mph - N/A   Mostly Cloudy
5:56 PM 62.1 °F 48.9 °F 62% 29.81 in 10.0 mi WNW 10.4 mph - N/A   Mostly Cloudy
6:56 PM 60.1 °F 48.0 °F 64% 29.83 in 10.0 mi WNW 6.9 mph - N/A   Overcast
7:56 PM 57.9 °F 48.9 °F 72% 29.85 in 10.0 mi WNW 4.6 mph - N/A   Overcast
8:56 PM 57.9 °F 46.9 °F 67% 29.86 in 10.0 mi NW 10.4 mph - N/A   Overcast
9:56 PM 55.9 °F 48.0 °F 75% 29.87 in 10.0 mi WNW 9.2 mph - 0.00 in   Overcast
10:56 PM 54.0 °F 48.9 °F 83% 29.88 in 10.0 mi WNW 8.1 mph - N/A   Overcast
11:56 PM 52.0 °F 48.9 °F 89% 29.88 in 10.0 mi West 4.6 mph - N/A   Clear